Wind_Speed
66 61 57 64 66 58 51 55 54 57 55 54 57 51 55 55 53 48 51 48 55 58 52 47 46 44 42 40 38 38 38 35 35 34 33 35 35 36 36 38 42 45 45 31
68 64 66 69 67 60 55 51 57 63 58 55 54 50 48 46 46 49 47 52 56 57 45 43 42 41 39 37 36 36 35 34 34 35 35 38 37 39 37 35 37 36 33 29
74 71 74 74 68 61 60 61 62 61 56 53 51 44 42 44 46 45 47 54 57 50 43 40 37 36 34 30 29 28 25 24 29 29 30 32 34 34 34 33 33 30 29 27
76 74 73 72 68 64 62 64 61 55 54 48 44 40 39 44 47 48 49 55 51 42 39 36 35 32 29 26 28 28 24 25 25 25 26 29 32 32 31 28 27 25 28 29
68 71 72 68 66 67 63 63 58 52 48 45 46 44 46 49 51 50 52 50 45 39 37 34 34 30 29 27 28 29 29 29 31 27 24 24 27 29 26 26 25 27 29 30
72 72 69 67 65 61 61 56 52 52 51 50 53 48 52 52 53 51 49 47 43 38 36 36 35 30 30 29 29 30 29 31 33 32 29 29 28 26 26 26 26 28 30 31
78 74 71 68 67 65 62 62 56 53 54 56 53 50 54 51 52 50 47 46 42 38 38 36 35 32 31 29 29 30 30 31 33 33 33 32 30 29 30 28 28 30 33 35
81 78 74 71 71 71 69 65 60 64 62 59 53 45 52 51 50 51 46 40 40 40 38 36 34 33 33 32 31 31 32 32 34 35 34 35 32 31 31 30 27 29 33 34
82 82 82 76 77 77 72 68 65 61 61 59 54 49 53 50 49 45 42 39 40 39 39 38 37 36 35 35 34 32 32 34 35 36 37 37 38 34 33 32 31 33 33 34
76 81 82 83 83 82 75 69 66 61 56 55 51 51 50 49 44 42 42 41 41 38 37 40 42 39 39 37 37 35 34 34 36 38 39 40 40 39 36 35 35 34 38 37
77 75 76 78 71 66 62 57 54 53 52 54 55 49 48 49 43 41 43 44 42 39 40 44 47 45 42 41 41 40 37 36 36 39 42 43 43 44 40 38 37 37 42 45
79 77 75 72 72 70 65 61 63 61 52 49 47 45 51 47 45 45 45 44 43 44 45 46 48 49 48 45 43 43 40 38 37 40 43 45 45 45 45 44 40 41 45 48
82 83 81 81 75 68 64 58 56 52 51 46 46 45 51 52 50 46 44 43 45 46 48 49 49 51 53 51 49 44 43 40 37 40 43 45 46 47 47 48 47 47 50 52
91 87 84 77 68 68 64 60 57 57 56 52 49 52 55 55 49 47 45 46 50 51 49 50 50 50 52 54 53 50 45 42 39 41 44 45 47 49 48 49 50 53 53 56
94 88 82 77 76 76 72 69 66 63 57 54 53 53 53 53 52 50 50 50 51 52 52 51 52 53 54 54 52 51 50 46 43 42 44 45 46 49 49 50 52 55 57 59
95 88 84 83 81 78 74 69 64 61 59 57 56 56 57 58 56 53 53 53 54 53 52 53 54 56 55 54 53 52 51 48 48 48 48 48 48 49 50 52 55 56 59 61
96 90 88 83 82 82 82 67 64 64 62 61 60 60 61 59 57 56 55 56 56 55 55 54 55 56 56 54 53 52 51 48 47 49 52 53 51 51 52 54 57 58 60 62
98 91 89 88 88 90 69 72 70 68 68 66 64 64 62 61 61 61 60 59 59 59 58 56 56 56 56 55 53 53 51 49 49 50 54 57 57 55 55 58 60 61 62 63
102 97 92 90 87 83 75 72 72 71 70 68 67 69 68 66 64 62 62 61 60 60 60 59 58 58 57 57 56 54 52 52 53 55 56 60 61 61 60 61 64 64 65 67
104 99 96 91 87 82 73 74 75 76 73 69 72 72 71 69 68 66 66 64 63 63 63 62 62 62 62 60 58 57 56 57 57 59 60 61 64 65 66 68 67 67 68 71
103 101 98 91 87 81 74 74 77 80 68 77 77 76 76 74 73 70 69 68 68 66 65 65 66 66 64 63 63 62 63 63 63 63 64 66 68 69 71 73 73 72 71 73
102 99 96 93 90 83 78 79 80 76 81 83 83 82 81 79 76 75 75 74 73 71 69 68 68 67 64 65 66 67 67 67 68 68 69 71 72 73 75 76 76 76 76 77
105 100 98 96 91 85 85 84 83 83 83 84 86 87 86 84 81 80 81 78 77 75 73 71 69 67 67 67 68 69 71 72 72 73 74 76 76 77 79 80 79 79 82 84
107 101 100 98 94 90 89 89 89 88 88 90 89 89 89 89 88 85 85 83 81 81 78 74 72 71 71 71 73 74 75 76 77 79 80 80 80 81 82 83 82 82 85 89
107 103 101 97 96 95 95 95 94 93 93 94 94 95 94 93 91 90 89 88 86 83 77 74 72 72 73 74 76 77 78 80 81 84 85 85 86 86 86 85 86 87 89 91
109 105 101 98 99 99 100 100 99 99 98 97 97 95 95 94 93 91 90 86 82 79 77 77 78 79 80 81 82 83 84 86 88 89 90 91 91 90 89 89 91 93 95 97
Wind_Direction
256 259 263 262 261 265 272 268 276 276 280 283 288 284 285 290 294 295 301 304 309 313 312 310 309 312 316 318 321 326 327 322 317 315 305 303 308 306 308 302 297 303 306 307
258 262 257 258 262 267 270 271 274 277 280 284 288 283 286 291 294 297 299 304 308 309 306 307 309 314 318 321 326 329 328 323 322 316 309 303 298 304 303 302 300 304 310 311
259 256 258 261 266 268 271 271 273 277 279 283 283 281 283 288 293 297 301 302 304 304 304 303 307 314 317 323 325 323 326 329 322 317 312 307 304 307 304 303 299 304 306 312
257 257 256 258 263 265 268 267 275 277 278 278 280 281 287 287 291 295 299 299 301 299 298 301 304 312 311 316 317 322 325 332 333 331 321 315 315 312 312 307 306 311 309 315
248 251 253 257 257 264 262 267 276 274 273 274 277 282 285 284 289 293 294 295 296 298 294 297 299 308 308 312 314 320 331 338 337 339 335 335 333 328 325 317 319 318 317 319
249 252 255 259 260 262 263 265 264 265 271 277 274 279 276 282 284 289 290 290 292 291 288 288 293 302 305 309 312 316 330 337 342 340 338 343 341 339 326 324 324 321 319 311
242 245 247 251 255 255 255 257 257 265 269 268 274 279 274 281 283 284 286 287 287 283 280 283 289 298 304 308 308 314 321 328 335 340 337 340 341 340 348 347 341 335 325 322
244 246 248 247 248 248 249 253 260 265 266 270 275 271 272 276 279 283 282 280 278 280 278 282 289 295 298 304 307 309 316 319 325 330 335 335 333 331 337 341 339 345 339 331
241 243 247 251 251 252 254 260 260 263 266 269 270 266 270 272 277 277 276 277 276 275 279 282 284 292 296 301 303 305 310 313 317 322 328 327 328 328 330 333 334 336 336 334
240 243 246 247 250 253 255 254 258 260 259 262 263 264 265 268 271 270 272 273 269 271 280 286 287 288 293 299 301 303 302 305 311 314 320 323 323 324 326 331 333 336 338 337
238 240 242 244 247 249 248 249 252 253 256 259 259 259 259 266 269 269 268 268 267 270 276 280 284 287 289 294 296 299 299 300 303 309 313 317 318 321 322 325 328 333 335 339
236 236 238 241 239 242 243 246 252 257 256 255 258 258 259 261 264 265 265 265 266 269 273 277 282 285 288 289 289 293 294 297 300 305 306 309 313 316 317 320 326 325 333 337
235 237 236 238 239 245 249 249 248 249 250 252 254 251 254 259 264 268 266 267 269 271 272 275 280 283 286 286 287 289 291 293 297 301 301 305 308 313 315 317 322 323 327 330
233 233 234 238 238 237 240 241 241 243 247 248 251 247 254 261 265 264 263 264 267 271 277 280 282 284 284 283 284 286 287 288 292 296 297 302 306 310 311 315 318 320 323 325
232 232 234 235 238 240 239 241 243 248 249 253 247 252 253 258 261 263 264 267 271 275 279 284 284 285 285 284 282 284 286 287 288 289 293 298 302 305 309 311 314 317 319 322
229 230 231 232 234 236 238 237 240 243 246 247 247 247 250 253 258 265 268 269 272 276 280 281 282 283 285 283 280 281 282 284 285 289 292 296 299 303 305 308 311 314 317 319
228 228 230 231 234 236 237 243 243 243 245 246 246 246 250 254 258 263 270 273 275 278 279 282 282 281 282 282 279 278 277 278 283 292 295 296 300 300 304 307 309 312 314 316
227 227 229 230 232 235 238 240 242 242 243 246 247 250 252 254 258 261 266 273 278 280 281 284 284 281 282 282 279 278 279 281 284 289 291 294 297 299 303 307 308 309 311 313
225 227 229 231 233 237 236 239 243 243 242 243 246 249 251 254 258 262 266 271 276 279 281 284 285 281 279 278 279 280 281 283 286 288 290 294 296 299 301 303 305 308 310 312
225 227 229 231 234 237 236 236 241 245 245 248 249 250 253 255 258 261 265 270 274 277 278 282 283 281 280 280 280 280 281 283 285 288 290 291 294 297 300 302 304 306 308 311
224 227 230 232 233 236 237 239 240 244 249 249 251 253 255 256 258 261 264 269 273 277 278 279 280 277 276 277 278 279 281 284 285 286 288 291 292 294 298 301 304 305 307 310
225 226 231 233 234 233 236 238 240 242 245 248 252 255 257 258 259 262 265 269 272 276 277 279 278 274 273 273 274 276 278 280 283 286 289 291 292 294 297 300 301 304 306 307
223 226 229 231 233 233 235 237 239 242 245 248 253 257 260 262 263 263 267 270 273 274 276 277 274 271 270 270 272 273 276 279 282 285 287 289 291 294 297 299 300 302 304 305
222 225 229 231 234 234 236 238 240 242 245 249 252 255 258 262 264 266 269 270 272 275 276 274 271 271 272 271 272 274 276 279 283 285 287 289 291 294 295 296 298 300 301 303
224 225 228 231 234 236 238 239 241 243 245 248 251 254 258 261 263 266 269 272 274 274 273 272 272 273 273 275 276 278 280 281 283 284 286 288 290 292 293 295 296 298 300 301
223 225 227 231 233 236 238 240 242 244 246 248 251 255 259 262 265 268 271 272 272 271 271 272 274 275 276 276 278 279 280 281 283 284 286 288 289 291 292 293 295 296 298 299
Height
10759 10769 10775 10767 10767 10779 10786 10789 10790 10783 10788 10790 10786 10786 10783 10782 10780 10778 10775 10772 10768 10765 10761 10755 10748 10745 10740 10734 10730 10727 10722 10718 10716 10714 10712 10711 10708 10705 10703 10701 10698 10696 10693 10689
10747 10759 10754 10751 10757 10770 10775 10779 10776 10772 10779 10781 10776 10777 10776 10773 10770 10768 10769 10764 10761 10757 10753 10748 10742 10737 10734 10729 10723 10720 10718 10715 10711 10707 10705 10701 10700 10698 10695 10692 10690 10687 10684 10681
10736 10741 10737 10740 10750 10757 10762 10765 10761 10764 10768 10770 10768 10768 10768 10764 10762 10761 10761 10755 10753 10750 10745 10741 10737 10733 10729 10725 10721 10718 10715 10712 10709 10705 10701 10696 10694 10690 10688 10685 10682 10680 10676 10673
10721 10726 10723 10729 10740 10744 10748 10745 10752 10755 10756 10759 10758 10758 10758 10755 10754 10755 10753 10747 10745 10743 10738 10734 10731 10728 10725 10722 10719 10716 10712 10708 10705 10702 10697 10693 10689 10685 10682 10680 10677 10674 10670 10667
10708 10705 10708 10719 10724 10730 10732 10735 10741 10743 10744 10748 10747 10749 10747 10747 10745 10746 10743 10738 10738 10735 10731 10727 10724 10722 10720 10717 10714 10710 10706 10701 10698 10694 10691 10687 10683 10678 10675 10673 10671 10668 10665 10662
10692 10693 10701 10705 10708 10715 10716 10724 10728 10730 10734 10737 10735 10741 10734 10738 10736 10736 10734 10729 10729 10727 10724 10722 10718 10716 10714 10711 10708 10704 10700 10695 10691 10688 10685 10682 10679 10675 10671 10667 10664 10662 10659 10655
10674 10680 10685 10691 10696 10700 10705 10707 10716 10721 10722 10722 10727 10732 10720 10727 10726 10726 10725 10721 10718 10719 10715 10714 10711 10709 10707 10705 10703 10698 10694 10691 10687 10683 10680 10676 10673 10671 10666 10662 10659 10657 10653 10649
10662 10669 10673 10677 10678 10681 10687 10694 10707 10707 10708 10711 10718 10716 10711 10716 10715 10716 10715 10713 10709 10707 10705 10705 10704 10701 10699 10699 10697 10694 10690 10686 10683 10679 10676 10673 10669 10666 10662 10658 10656 10653 10648 10643
10640 10651 10651 10660 10660 10663 10679 10689 10689 10694 10697 10699 10704 10701 10700 10704 10706 10704 10704 10704 10701 10698 10695 10695 10697 10694 10692 10691 10691 10689 10685 10680 10677 10674 10670 10667 10665 10661 10657 10654 10651 10649 10644 10639
10623 10629 10636 10635 10644 10653 10670 10670 10677 10684 10685 10686 10690 10689 10688 10691 10695 10694 10694 10694 10691 10690 10688 10683 10683 10687 10683 10684 10683 10682 10680 10677 10672 10668 10665 10660 10657 10654 10651 10647 10644 10641 10637 10632
10603 10611 10616 10619 10638 10641 10650 10658 10662 10667 10673 10673 10675 10680 10676 10678 10683 10685 10683 10683 10682 10682 10680 10677 10673 10675 10677 10675 10673 10672 10672 10669 10667 10662 10657 10653 10648 10644 10641 10639 10636 10633 10628 10623
10587 10588 10597 10607 10614 10622 10635 10645 10649 10655 10659 10660 10664 10668 10660 10668 10671 10672 10673 10673 10672 10671 10670 10670 10666 10664 10665 10666 10666 10664 10663 10661 10660 10655 10650 10646 10641 10636 10632 10630 10628 10625 10621 10616
10567 10573 10578 10581 10601 10616 10627 10633 10635 10639 10641 10651 10653 10654 10648 10652 10658 10662 10664 10664 10660 10658 10658 10658 10659 10656 10653 10652 10653 10656 10653 10652 10651 10647 10642 10638 10633 10628 10623 10618 10615 10614 10610 10606
10536 10551 10562 10577 10598 10594 10604 10613 10618 10621 10629 10636 10644 10639 10636 10638 10645 10649 10650 10650 10648 10647 10648 10647 10646 10645 10644 10641 10640 10641 10643 10642 10641 10638 10632 10628 10624 10619 10615 10611 10606 10603 10599 10595
10518 10537 10551 10563 10568 10576 10586 10593 10602 10611 10620 10625 10628 10629 10628 10627 10629 10633 10636 10637 10636 10635 10636 10635 10633 10631 10629 10628 10629 10628 10628 10628 10628 10628 10624 10620 10616 10611 10607 10602 10597 10592 10588 10584
10500 10521 10533 10542 10547 10557 10568 10578 10590 10599 10605 10611 10615 10618 10617 10617 10618 10618 10621 10623 10624 10624 10625 10623 10620 10617 10617 10615 10615 10616 10615 10616 10615 10613 10612 10610 10608 10604 10599 10593 10588 10583 10578 10572
10482 10504 10513 10530 10534 10536 10541 10575 10580 10585 10591 10596 10601 10602 10604 10606 10608 10609 10606 10607 10609 10611 10611 10611 10607 10604 10603 10604 10603 10603 10603 10604 10604 10600 10596 10595 10596 10593 10588 10583 10578 10573 10568 10563
10467 10486 10497 10508 10511 10509 10558 10553 10562 10568 10574 10581 10587 10589 10592 10594 10594 10595 10595 10593 10593 10595 10596 10597 10595 10592 10590 10589 10589 10589 10590 10591 10591 10589 10584 10581 10580 10579 10576 10572 10566 10561 10557 10551
10450 10466 10478 10488 10500 10513 10534 10542 10544 10551 10559 10565 10571 10572 10574 10577 10580 10582 10582 10583 10582 10581 10580 10579 10579 10579 10578 10578 10576 10577 10577 10577 10576 10574 10572 10565 10563 10562 10562 10559 10552 10547 10543 10537
10434 10448 10461 10474 10485 10500 10523 10527 10527 10530 10540 10552 10551 10553 10556 10560 10564 10566 10568 10569 10569 10569 10568 10566 10564 10563 10562 10563 10563 10562 10562 10561 10561 10559 10557 10554 10549 10546 10544 10542 10539 10533 10527 10520
10422 10433 10443 10462 10474 10488 10505 10511 10514 10512 10538 10525 10529 10533 10537 10542 10546 10550 10553 10553 10553 10553 10552 10552 10552 10550 10550 10549 10548 10546 10544 10545 10544 10543 10540 10538 10535 10533 10528 10523 10519 10516 10512 10506
10408 10421 10432 10446 10458 10475 10489 10492 10498 10509 10506 10506 10507 10512 10517 10523 10529 10532 10534 10535 10536 10537 10537 10537 10537 10537 10536 10535 10533 10531 10530 10528 10526 10525 10524 10521 10518 10515 10511 10507 10501 10496 10493 10489
10387 10401 10416 10426 10444 10462 10467 10474 10479 10485 10488 10492 10492 10492 10497 10503 10509 10513 10514 10517 10518 10519 10520 10520 10519 10519 10519 10518 10517 10515 10512 10511 10509 10508 10507 10503 10500 10497 10492 10488 10484 10479 10473 10467
10373 10387 10396 10411 10426 10440 10449 10455 10460 10467 10470 10470 10473 10476 10479 10481 10486 10492 10495 10498 10500 10500 10500 10499 10500 10500 10500 10499 10498 10497 10496 10494 10491 10488 10487 10484 10481 10479 10475 10470 10465 10461 10455 10448
10360 10374 10381 10397 10408 10419 10426 10432 10438 10445 10449 10452 10455 10456 10459 10463 10467 10470 10472 10475 10477 10479 10479 10477 10478 10479 10479 10478 10477 10476 10475 10474 10471 10468 10465 10463 10461 10459 10455 10449 10444 10440 10435 10430
10341 10357 10371 10381 10386 10393 10402 10411 10417 10423 10427 10432 10436 10441 10444 10446 10449 10452 10452 10453 10454 10455 10456 10457 10457 10457 10456 10455 10455 10456 10455 10452 10449 10445 10442 10440 10438 10435 10432 10428 10423 10418 10412 10407